Location: Ammerl�gen
(47.2167°N, 9.6000°E)
Time: 10:42:01
(UTC+00:00)

LilacSat-2 - Visible Passes

Search period start: 06 December 2021 00:00
Search period end: 16 December 2021 00:00
Orbit: 511 x 532 km, 97.5° (Epoch: 05 December)

Date Brightness Start Highest point End Pass type
(mag) Time Alt. Az. Time Alt. Az. Time Alt. Az.
06 Dec ? 04:42:09 10° NNE 04:45:38 31° E 04:49:06 10° SSE visible
06 Dec ? 06:16:35 10° NNW 06:19:40 23° WNW 06:22:44 10° WSW visible
06 Dec ? 17:00:19 10° SSW 17:03:37 28° W 17:06:56 10° NW visible
07 Dec ? 04:29:26 10° NE 04:32:34 23° E 04:35:41 10° SSE visible
07 Dec ? 06:03:20 10° N 06:06:46 31° WNW 06:10:11 10° SW visible
07 Dec ? 16:47:00 10° SSW 16:50:33 39° W 16:54:09 10° NNW visible
08 Dec ? 04:16:53 10° NE 04:19:29 17° E 04:22:03 10° SE visible
08 Dec ? 05:50:11 10° N 05:53:51 42° WNW 05:57:30 10° SW visible
08 Dec ? 16:33:48 10° S 16:37:31 56° W 16:41:17 10° NNW visible
09 Dec ? 04:04:40 10° ENE 04:06:21 12° E 04:08:02 10° ESE visible
09 Dec ? 05:37:05 10° N 05:40:55 59° WNW 05:44:42 10° SSW visible
09 Dec ? 16:20:44 10° S 16:24:30 80° WSW 16:28:20 10° NNW visible
10 Dec ? 05:24:03 10° NNE 05:27:56 84° WNW 05:31:47 10° SSW visible
10 Dec ? 16:07:44 10° SSE 16:11:31 72° ENE 16:15:20 10° N visible
11 Dec ? 05:11:04 10° NNE 05:14:56 69° ESE 05:18:46 10° S visible
11 Dec ? 17:30:58 10° WSW 17:33:01 14° W 17:35:06 10° WNW visible
12 Dec ? 04:58:08 10° NNE 05:01:54 48° E 05:05:38 10° S visible
12 Dec ? 17:17:07 10° SW 17:19:54 19° W 17:22:42 10° NW visible
13 Dec ? 04:45:17 10° NNE 04:48:51 34° E 04:52:23 10° SSE visible
13 Dec ? 06:19:51 10° NNW 06:22:50 22° WNW 06:25:49 10° WSW visible
13 Dec ? 17:03:34 10° SSW 17:06:48 26° W 17:10:04 10° NW visible
14 Dec ? 04:32:32 10° NE 04:35:46 25° E 04:38:59 10° SSE visible
14 Dec ? 06:06:34 10° N 06:09:56 29° WNW 06:13:16 10° SW visible
14 Dec ? 16:50:11 10° SSW 16:53:43 36° W 16:57:17 10° NNW visible
15 Dec ? 04:19:54 10° NE 04:22:40 18° E 04:25:23 10° SE visible
15 Dec ? 05:53:22 10° N 05:57:00 39° WNW 06:00:36 10° SW visible
15 Dec ? 16:36:57 10° S 16:40:39 51° W 16:44:25 10° NNW visible
